Atka, AK

9:25 AM HDT on October 22, 2017 (GMT -0900)
Atka

Weather History for PAAK - March, 2014

Change the Weather History Date:

Tuesday, March 4, 2014

  Actual Average (PADK) Record (PADK)
Temperature  
Mean Temperature 42 °F -  
Max Temperature 42 °F 38 °F 46 °F (1985)
Min Temperature 41 °F 28 °F 12 °F (2008)
Degree Days  
Heating Degree Days 24    
Moisture  
Dew Point 36 °F    
Average Humidity 79    
Maximum Humidity 81    
Minimum Humidity 76    
Precipitation  
Precipitation 0.00 in - - ()
Sea Level Pressure  
Sea Level Pressure 29.53 in    
Wind  
Wind Speed 18 mph (East)    
Max Wind Speed 29 mph    
Max Gust Speed 36 mph    
Visibility 7 miles    
Events      
Averages and records for this station are not official NWS values.
T = Trace of Precipitation, MM = Missing Value Source: NWS Daily Summary

Daily Weather History Graph

Daily Weather History Graph

Search for Another Location

Airport or City:

Trip Planner

Search our weather history database for the weather conditions in past years. The results will help you decide how hot, cold, wet, or windy it might be!

Date:

Astronomy

Mar. 04, 2014 Rise Set
Actual Time 8:15 AM HST 7:22 PM HST
Civil Twilight 7:41 AM HST 7:56 PM HST
Nautical Twilight 7:02 AM HST 8:35 PM HST
Astronomical Twilight 6:22 AM HST 9:15 PM HST
Moon 9:38 AM HST (3/4) No Moon Set
Length of Visible Light 12h 14m
Length of Day
11h 06m
Waxing Crescent, 16% of the Moon is Illuminated
Mar 4
Waxing Crescent
Mar 8
First Quarter
Mar 16
Full
Mar 23
Last Quarter
Mar 30
New

Hourly Weather History & Observations

Time (HST) Temp. Windchill Dew Point Humidity Pressure Visibility Wind Dir Wind Speed Gust Speed Precip Events Conditions
12:16 AM 41.0 °F 34.3 °F 35.6 °F 81% 29.70 in 4.0 mi East 11.5 mph - N/A   Overcast
12:36 AM 41.0 °F 34.7 °F 35.6 °F 81% 29.70 in 4.0 mi East 10.4 mph - N/A   Overcast
12:56 AM 41.0 °F 33.1 °F 35.6 °F 81% 29.69 in 10.0 mi East 15.0 mph - N/A   Overcast
1:16 AM 41.0 °F 34.3 °F 35.6 °F 81% 29.70 in 10.0 mi East 11.5 mph - N/A   Overcast
1:36 AM 41.0 °F 33.5 °F 35.6 °F 81% 29.69 in 10.0 mi East 13.8 mph - N/A   Overcast
1:56 AM 41.0 °F 33.1 °F 35.6 °F 81% 29.69 in 10.0 mi East 15.0 mph - N/A   Overcast
2:16 AM 41.0 °F 34.7 °F 35.6 °F 81% 29.69 in 9.0 mi East 10.4 mph - N/A   Overcast
2:36 AM 41.0 °F 32.5 °F 35.6 °F 81% 29.68 in 5.0 mi East 17.3 mph - N/A   Mostly Cloudy
2:56 AM 41.0 °F 33.1 °F 35.6 °F 81% 29.68 in 8.0 mi East 15.0 mph - N/A   Overcast
3:16 AM 41.0 °F 33.5 °F 35.6 °F 81% 29.67 in 3.0 mi East 13.8 mph - N/A   Overcast
3:36 AM 41.0 °F 33.1 °F 35.6 °F 81% 29.67 in 4.0 mi East 15.0 mph - N/A   Overcast
3:56 AM 41.0 °F 32.8 °F 35.6 °F 81% 29.67 in 3.0 mi East 16.1 mph - N/A   Overcast
4:16 AM 41.0 °F 32.5 °F 35.6 °F 81% 29.66 in 3.0 mi East 17.3 mph - N/A   Overcast
4:36 AM 41.0 °F 31.9 °F 35.6 °F 81% 29.65 in 10.0 mi East 19.6 mph 23.0 mph N/A   Overcast
4:56 AM 41.0 °F 31.6 °F 35.6 °F 81% 29.65 in 10.0 mi East 20.7 mph 24.2 mph N/A   Overcast
5:16 AM 41.0 °F 31.6 °F 35.6 °F 81% 29.64 in 10.0 mi East 20.7 mph 25.3 mph N/A   Overcast
5:36 AM 41.0 °F 32.2 °F 35.6 °F 81% 29.65 in 10.0 mi East 18.4 mph - N/A   Overcast
5:56 AM 41.0 °F 31.9 °F 35.6 °F 81% 29.64 in 10.0 mi East 19.6 mph - N/A   Overcast
6:16 AM 41.0 °F 31.9 °F 35.6 °F 81% 29.64 in 10.0 mi East 19.6 mph 25.3 mph N/A   Overcast
6:36 AM 41.0 °F 32.2 °F 35.6 °F 81% 29.63 in 4.0 mi East 18.4 mph - N/A   Overcast
6:56 AM 41.0 °F 31.4 °F 35.6 °F 81% 29.62 in 5.0 mi East 21.9 mph 27.6 mph N/A   Overcast
7:16 AM 41.0 °F 31.6 °F 35.6 °F 81% 29.62 in 3.0 mi East 20.7 mph - N/A   Overcast
7:36 AM 42.8 °F 34.0 °F 35.6 °F 76% 29.63 in 8.0 mi East 20.7 mph - N/A   Overcast
7:56 AM 42.8 °F 34.3 °F 35.6 °F 76% 29.62 in 10.0 mi East 19.6 mph - N/A   Overcast
8:16 AM 42.8 °F 34.3 °F 35.6 °F 76% 29.62 in 5.0 mi East 19.6 mph - N/A   Overcast
8:36 AM 42.8 °F 34.3 °F 35.6 °F 76% 29.61 in 7.0 mi ENE 19.6 mph 26.5 mph N/A   Overcast
8:56 AM 42.8 °F 34.0 °F 35.6 °F 76% 29.61 in 4.0 mi East 20.7 mph 27.6 mph N/A   Overcast
9:16 AM 42.8 °F 34.0 °F 35.6 °F 76% 29.61 in 7.0 mi ENE 20.7 mph 25.3 mph N/A   Overcast
9:36 AM 42.8 °F 34.8 °F 35.6 °F 76% 29.61 in 10.0 mi East 17.3 mph 26.5 mph N/A   Overcast
9:56 AM 42.8 °F 34.0 °F 35.6 °F 76% 29.60 in 10.0 mi East 20.7 mph 27.6 mph N/A   Overcast
10:16 AM 42.8 °F 34.3 °F 35.6 °F 76% 29.59 in 10.0 mi East 19.6 mph 28.8 mph N/A   Overcast
10:36 AM 42.8 °F 35.1 °F 35.6 °F 76% 29.59 in 4.0 mi East 16.1 mph 25.3 mph N/A   Overcast
10:56 AM 42.8 °F 33.5 °F 35.6 °F 76% 29.58 in 3.0 mi East 23.0 mph 27.6 mph N/A   Overcast
11:16 AM 42.8 °F 34.5 °F 35.6 °F 76% 29.57 in 5.0 mi East 18.4 mph 24.2 mph N/A   Overcast
11:36 AM 42.8 °F 34.5 °F 35.6 °F 76% 29.57 in 10.0 mi East 18.4 mph 25.3 mph N/A   Overcast
11:56 AM 42.8 °F 34.8 °F 35.6 °F 76% 29.56 in 8.0 mi East 17.3 mph 23.0 mph N/A   Overcast
12:16 PM 42.8 °F 34.3 °F 35.6 °F 76% 29.55 in 4.0 mi East 19.6 mph 24.2 mph N/A   Overcast
12:36 PM 42.8 °F 34.0 °F 35.6 °F 76% 29.54 in 9.0 mi East 20.7 mph 25.3 mph N/A   Overcast
12:56 PM 41.0 °F 31.6 °F 35.6 °F 81% 29.53 in 9.0 mi East 20.7 mph 26.5 mph N/A   Overcast
1:16 PM 41.0 °F 32.2 °F 35.6 °F 81% 29.52 in 10.0 mi East 18.4 mph 25.3 mph N/A   Overcast
1:36 PM 41.0 °F 31.4 °F 35.6 °F 81% 29.51 in 7.0 mi East 21.9 mph 29.9 mph N/A   Overcast
1:56 PM 41.0 °F 30.7 °F 35.6 °F 81% 29.49 in 9.0 mi East 25.3 mph 31.1 mph N/A   Overcast
2:16 PM 41.0 °F 30.0 °F 35.6 °F 81% 29.47 in 10.0 mi East 28.8 mph 34.5 mph N/A   Overcast
2:36 PM 41.0 °F 30.2 °F 35.6 °F 81% 29.46 in 10.0 mi East 27.6 mph 35.7 mph N/A   Overcast
2:56 PM 41.0 °F 30.2 °F 35.6 °F 81% 29.46 in 9.0 mi East 27.6 mph 33.4 mph N/A   Overcast
3:16 PM 41.0 °F 30.7 °F 35.6 °F 81% 29.45 in 8.0 mi East 25.3 mph 34.5 mph N/A   Overcast
3:36 PM 41.0 °F 30.9 °F 35.6 °F 81% 29.44 in 7.0 mi East 24.2 mph 32.2 mph N/A   Overcast
3:56 PM 42.8 °F 33.1 °F 35.6 °F 76% 29.44 in 7.0 mi East 25.3 mph 29.9 mph N/A   Overcast
4:16 PM 42.8 °F 32.7 °F 35.6 °F 76% 29.43 in 5.0 mi East 27.6 mph 33.4 mph N/A   Overcast
4:36 PM 42.8 °F 33.3 °F 35.6 °F 76% 29.42 in 7.0 mi East 24.2 mph 33.4 mph N/A   Overcast
4:56 PM 41.0 °F 30.7 °F 35.6 °F 81% 29.42 in 5.0 mi East 25.3 mph 32.2 mph N/A   Overcast
5:16 PM 41.0 °F 31.1 °F 35.6 °F 81% 29.41 in 4.0 mi East 23.0 mph - N/A   Overcast
5:36 PM 41.0 °F 30.9 °F 35.6 °F 81% 29.40 in 7.0 mi East 24.2 mph 28.8 mph N/A   Overcast
5:56 PM 41.0 °F 30.7 °F 35.6 °F 81% 29.39 in 9.0 mi East 25.3 mph - N/A   Overcast
6:16 PM 41.0 °F 31.4 °F 35.6 °F 81% 29.39 in 9.0 mi East 21.9 mph 28.8 mph N/A   Overcast
6:36 PM 41.0 °F 31.1 °F 35.6 °F 81% 29.39 in 9.0 mi East 23.0 mph 27.6 mph N/A   Overcast
6:56 PM 41.0 °F 30.7 °F 35.6 °F 81% 29.38 in 10.0 mi East 25.3 mph 31.1 mph N/A   Overcast
7:16 PM 41.0 °F 31.1 °F 35.6 °F 81% 29.38 in 10.0 mi East 23.0 mph 29.9 mph N/A   Overcast
7:36 PM 41.0 °F 30.9 °F 35.6 °F 81% 29.38 in 10.0 mi East 24.2 mph 27.6 mph N/A   Overcast
7:56 PM 41.0 °F 31.1 °F 35.6 °F 81% 29.39 in 8.0 mi East 23.0 mph 27.6 mph N/A   Overcast
8:16 PM 41.0 °F 31.1 °F 35.6 °F 81% 29.39 in 5.0 mi East 23.0 mph 29.9 mph N/A   Overcast
8:36 PM 41.0 °F 30.9 °F 35.6 °F 81% 29.39 in 8.0 mi East 24.2 mph 28.8 mph N/A   Overcast
8:56 PM 41.0 °F 31.1 °F 35.6 °F 81% 29.39 in 9.0 mi East 23.0 mph 31.1 mph N/A   Overcast
9:16 PM 41.0 °F 30.9 °F 35.6 °F 81% 29.39 in 6.0 mi East 24.2 mph 27.6 mph N/A   Overcast
9:36 PM 42.8 °F 32.9 °F 35.6 °F 76% 29.39 in 5.0 mi East 26.5 mph 32.2 mph N/A   Overcast
9:56 PM 42.8 °F 33.3 °F 35.6 °F 76% 29.39 in 5.0 mi East 24.2 mph 32.2 mph N/A   Overcast
10:16 PM 41.0 °F 30.5 °F 35.6 °F 81% 29.39 in 5.0 mi East 26.5 mph 35.7 mph N/A   Overcast
10:36 PM 41.0 °F 30.5 °F 35.6 °F 81% 29.39 in 5.0 mi East 26.5 mph 34.5 mph N/A   Overcast
10:56 PM 41.0 °F 30.7 °F 35.6 °F 81% 29.39 in 5.0 mi East 25.3 mph - N/A   Overcast
11:16 PM 41.0 °F 30.5 °F 33.8 °F 76% 29.39 in 7.0 mi East 26.5 mph 33.4 mph N/A   Overcast
11:36 PM 41.0 °F 30.2 °F 33.8 °F 76% 29.39 in 7.0 mi East 27.6 mph 32.2 mph N/A   Overcast
11:56 PM 41.0 °F 30.5 °F 33.8 °F 76% 29.39 in 10.0 mi East 26.5 mph 31.1 mph N/A   Overcast